EHI
0 0 0 0 0 0 0 0 0 0 0 0 0 0 0 0 1 0 0 0 3 10 18 23 22 17 12 12 13 11 9 6 5 6 9 10 10 11 12 11 9 6 4 2 0 0 0 0 0
0 0 0 0 0 0 0 0 0 0 0 0 0 0 1 1 1 1 0 1 5 11 19 23 22 16 12 11 11 10 8 6 6 7 9 9 10 12 13 13 11 8 6 3 1 0 1 1 0
0 0 0 0 0 0 0 0 0 0 0 0 0 1 2 2 2 1 1 2 7 12 18 22 21 16 12 9 9 8 7 6 7 8 8 8 10 13 15 15 13 10 7 4 2 1 2 2 1
0 0 0 0 0 0 0 0 0 0 0 0 1 2 3 3 2 2 2 3 8 11 14 19 19 16 13 10 8 7 6 7 8 8 7 7 8 11 15 15 14 10 7 5 3 2 2 3 2
0 0 0 0 0 0 0 0 0 0 0 0 1 3 3 3 3 4 3 4 6 9 11 15 17 15 14 12 9 7 6 7 9 8 6 5 6 10 13 14 12 9 7 6 4 2 2 2 2
0 0 0 0 0 0 0 0 0 0 0 0 1 3 3 3 4 5 4 3 5 6 9 11 13 12 12 12 10 7 7 7 7 6 4 3 5 9 12 12 10 8 7 6 5 3 1 1 2
0 0 0 0 0 0 0 0 0 0 0 1 2 3 3 3 6 6 5 4 5 6 7 7 8 8 9 10 8 6 6 7 7 6 4 3 5 9 12 10 7 6 6 6 5 3 1 0 1
0 0 0 0 0 0 0 0 0 0 0 1 2 3 3 4 6 8 8 7 8 8 7 6 6 7 7 7 6 4 5 6 6 5 4 3 5 8 10 8 5 4 5 6 5 3 1 0 0
0 0 0 0 0 0 0 0 0 0 1 2 3 3 3 5 6 8 9 9 9 9 8 8 7 7 6 4 4 3 3 4 5 4 3 3 4 6 6 5 3 3 4 4 5 3 1 0 0
0 0 0 0 0 0 0 0 0 0 1 2 3 3 5 6 7 6 6 7 7 8 8 7 8 8 6 4 4 4 4 3 4 3 3 3 4 5 4 3 3 3 3 3 3 2 1 0 0
0 0 0 0 0 0 0 0 0 0 0 1 2 4 5 6 6 4 3 3 4 5 6 6 6 6 6 6 7 6 5 4 4 4 3 3 4 5 4 3 3 3 2 1 1 2 1 0 0
0 0 0 0 0 0 0 0 0 0 0 0 1 2 4 5 5 3 1 1 2 3 4 4 4 5 7 8 8 7 6 6 6 5 4 3 4 5 5 4 4 4 3 2 2 2 1 0 0
0 0 0 0 0 0 0 0 0 0 0 0 0 1 3 4 4 3 1 0 1 1 2 2 3 4 6 7 8 7 6 6 6 6 4 3 4 5 5 4 4 5 5 4 4 3 1 0 0
0 0 0 0 0 0 0 0 0 0 0 1 1 1 3 3 3 2 1 0 0 0 0 1 3 4 5 6 7 7 6 6 6 6 4 4 4 4 4 3 3 3 3 3 3 2 1 0 0
0 0 0 0 0 0 0 0 0 0 1 2 2 3 3 3 2 1 0 0 0 0 0 1 3 4 4 5 6 6 6 6 6 6 4 3 4 3 3 3 2 1 1 1 1 1 0 0 0
0 0 0 0 0 0 0 0 0 0 1 2 3 3 3 2 1 0 0 0 0 0 0 0 2 3 3 4 6 6 6 6 6 6 4 3 3 3 3 3 2 0 0 0 0 0 0 0 0
0 0 0 0 0 0 0 0 0 0 0 1 1 2 2 1 0 0 0 0 1 1 0 0 1 2 3 4 5 6 6 6 6 6 4 3 3 3 3 3 2 1 1 0 0 0 0 0 0
0 0 0 0 0 0 0 0 0 0 0 0 0 1 1 0 0 0 0 1 2 2 1 0 0 1 2 3 4 5 6 6 6 6 4 3 3 3 3 2 2 2 1 0 0 0 0 0 0
0 0 0 0 0 0 0 0 0 0 0 0 0 1 0 0 0 0 0 0 1 2 1 0 0 0 1 2 2 3 4 5 5 4 3 2 2 2 1 1 1 1 1 0 0 0 0 0 0
0 0 0 0 0 0 0 0 0 0 0 0 0 0 0 0 0 0 0 0 0 1 1 1 0 0 0 0 0 1 1 2 2 1 1 1 1 1 0 0 0 0 0 0 0 0 0 0 0
0 0 0 0 0 0 0 0 0 0 0 0 0 0 0 0 0 0 0 0 0 0 1 1 1 0 0 0 0 0 0 0 0 0 0 0 0 0 0 0 0 0 0 0 0 0 0 0 0
0 0 0 0 0 0 0 0 0 0 0 0 0 0 0 0 0 0 0 0 0 0 0 1 1 1 1 0 0 0 0 0 0 0 0 0 0 0 0 0 0 0 0 0 0 0 0 0 0
0 0 0 0 0 0 0 0 0 0 0 0 0 0 0 0 0 0 0 0 0 0 0 0 1 2 2 1 1 1 0 0 0 0 0 0 0 0 0 0 0 0 0 0 0 0 0 0 0
0 0 0 0 0 0 0 0 0 0 0 0 0 0 0 0 0 0 0 0 0 0 0 0 0 1 2 3 2 2 1 0 0 0 0 0 0 0 0 0 0 0 0 0 0 0 0 0 0
0 0 0 0 0 0 0 0 0 0 0 0 0 0 0 0 0 0 0 0 0 0 0 0 0 1 2 2 2 2 1 0 0 0 0 0 0 0 0 0 0 0 0 0 0 0 0 0 0
0 0 0 0 0 0 0 0 0 0 0 0 0 0 0 0 0 0 0 0 0 0 0 0 0 0 1 1 1 1 0 0 0 0 0 0 0 0 0 0 0 0 0 0 0 0 0 0 0
0 0 0 0 0 0 0 0 0 0 0 0 0 0 0 0 0 0 0 0 0 0 0 0 0 1 2 1 1 0 0 0 0 0 0 0 0 0 0 0 0 0 0 0 0 0 0 0 0
0 0 0 0 0 0 0 0 0 0 0 0 0 0 0 0 0 0 0 0 0 0 0 0 1 2 3 2 1 0 0 0 0 0 0 0 0 0 0 0 0 0 0 0 0 0 0 0 0
0 0 0 0 0 0 0 0 0 0 0 0 0 0 0 0 0 0 0 0 0 0 0 0 2 3 3 2 1 0 0 0 0 0 0 0 0 0 0 0 0 0 0 0 0 0 0 0 0
0 0 0 0 0 0 0 0 0 0 0 0 0 0 0 0 0 0 0 0 0 0 0 0 1 3 3 1 0 0 0 0 0 0 0 0 0 0 0 0 0 0 0 0 0 0 0 0 0
Wind_Speed
6 3 3 3 5 6 11 8 6 5 5 2 2 3 3 3 2 2 4 2 1 2 4 5 4 3 4 5 5 5 5 6 6 7 8 8 8 8 8 8 8 8 8 8 8 8 8 7 7
4 2 3 4 7 10 10 8 8 5 2 1 3 4 4 2 1 2 2 2 0 2 3 4 4 3 4 4 4 4 5 6 6 7 7 8 8 8 8 8 8 7 8 8 8 7 7 7 6
2 2 3 4 8 10 9 5 5 3 3 3 3 2 3 1 1 1 2 1 1 2 3 4 3 3 3 3 4 4 4 5 6 6 7 7 8 8 8 8 7 7 7 7 7 7 7 7 6
2 3 3 6 10 8 6 3 2 4 4 3 3 3 2 1 1 1 1 0 1 2 2 4 2 2 3 3 3 4 4 4 5 6 6 6 6 7 8 7 7 7 7 7 7 6 6 6 6
2 3 6 7 9 6 4 2 2 4 4 3 4 4 2 2 2 2 1 0 1 1 2 3 2 2 2 3 3 4 4 4 4 5 5 6 5 6 7 7 7 7 7 7 7 6 6 6 6
3 3 7 9 8 6 5 4 5 5 4 3 3 4 2 2 2 2 2 1 0 1 1 2 2 2 2 2 2 3 4 3 3 4 4 5 5 5 6 7 7 7 7 7 7 6 6 6 5
3 3 6 7 6 6 4 4 5 5 5 3 3 4 2 1 2 3 2 1 0 1 0 1 1 2 2 1 2 2 3 3 3 3 3 4 4 5 6 7 7 7 7 6 6 6 6 6 5
1 2 4 6 6 5 2 3 3 4 3 2 3 4 3 2 4 3 2 1 1 1 1 1 0 1 2 2 2 2 2 3 3 2 2 3 4 5 5 6 6 7 7 6 6 6 6 6 5
1 3 5 6 5 3 1 2 1 2 2 3 2 4 5 4 3 2 1 1 2 2 2 1 1 0 1 1 2 2 3 3 3 3 2 3 4 4 4 4 5 6 6 6 6 6 6 5 5
2 4 4 2 2 2 2 2 2 3 3 4 4 3 3 2 2 2 1 2 2 3 3 2 2 1 1 0 2 3 3 3 3 3 3 3 3 2 2 4 4 5 5 6 6 6 6 5 4
1 2 1 2 2 2 2 3 2 5 5 5 5 4 3 3 2 2 2 2 2 3 3 3 2 2 1 1 1 1 1 2 3 3 3 3 3 2 2 2 3 4 5 5 5 6 4 4 3
2 1 1 1 2 3 4 3 3 6 7 6 6 5 5 5 4 3 3 3 3 3 3 3 3 2 1 1 1 1 1 1 2 2 3 2 2 2 2 2 3 3 3 3 4 3 4 4 4
2 2 2 2 3 3 4 5 6 7 6 5 4 3 4 5 5 4 4 3 3 4 4 4 3 2 2 1 1 1 2 2 2 2 3 3 2 3 3 2 3 3 3 4 3 4 4 4 4
1 1 3 4 5 4 4 5 5 6 4 3 2 3 4 4 5 5 5 4 4 4 5 4 4 3 2 1 1 2 2 2 2 3 3 4 3 3 3 3 3 3 3 4 4 4 4 4 4
1 1 2 2 3 2 4 5 5 4 4 3 3 4 4 5 5 6 6 5 5 5 5 5 4 3 2 2 2 2 2 2 2 2 4 4 4 3 4 3 3 3 3 4 4 4 4 4 4
2 3 3 0 2 2 4 7 3 2 4 4 4 5 5 5 5 6 6 6 6 5 5 5 4 4 3 2 2 2 3 3 2 2 3 4 4 4 3 3 3 3 3 3 4 4 4 4 4
3 4 4 2 1 3 4 7 5 4 4 5 5 5 6 6 6 6 6 6 6 5 5 5 4 4 4 3 2 2 3 3 2 2 3 3 4 4 4 3 3 3 3 4 4 4 4 4 4
4 4 4 4 2 4 6 8 8 6 6 6 5 5 5 6 6 6 6 6 5 5 4 4 4 4 4 2 2 2 3 3 2 3 3 4 4 4 4 3 4 4 3 3 4 5 4 4 3
2 3 5 5 4 6 7 10 10 8 6 6 6 6 6 6 6 5 6 5 5 5 4 4 4 4 3 2 2 2 3 3 2 2 3 4 4 4 4 3 4 4 4 4 5 4 5 4 2
4 5 5 4 3 5 7 10 9 7 6 6 6 6 6 7 6 6 5 5 6 6 4 4 4 4 4 3 2 2 3 3 3 2 3 4 4 4 3 4 3 3 3 5 5 4 3 3 3
5 6 6 5 6 4 7 8 5 4 4 4 4 5 6 6 7 7 6 5 6 6 5 4 5 4 4 3 2 1 2 3 2 2 3 3 3 3 3 4 4 4 3 4 4 5 5 4 4
5 4 5 6 5 3 4 6 5 4 4 4 4 4 5 6 7 7 6 6 6 6 4 4 4 4 4 3 2 3 3 4 4 3 3 3 3 3 3 4 4 4 3 4 4 4 4 5 5
3 3 4 5 5 5 4 6 6 4 6 5 5 5 5 6 6 7 7 6 6 5 4 4 4 4 3 3 3 4 4 4 2 2 3 2 2 3 3 3 3 3 3 4 4 4 4 4 5
3 3 3 4 4 5 5 7 6 3 5 6 5 5 6 6 6 7 6 6 5 5 4 3 4 4 4 4 3 4 5 4 3 2 2 2 2 2 2 3 3 3 3 4 4 4 5 4 4
3 3 2 3 3 4 2 7 7 3 5 6 7 7 6 5 5 6 6 6 5 5 5 4 4 4 4 4 4 4 4 4 4 3 3 2 2 2 2 2 3 3 3 3 4 4 4 5 5
3 3 2 3 4 3 3 8 4 2 4 6 7 7 7 6 6 7 6 6 6 5 5 4 4 4 4 4 4 4 3 3 2 3 2 2 2 3 3 3 3 3 3 3 4 4 4 4 5
3 3 1 1 2 6 5 6 5 4 4 5 6 6 7 7 6 7 7 6 6 6 5 4 4 4 4 4 4 4 3 3 2 2 2 2 3 3 3 2 2 2 2 2 3 3 3 3 3
1 3 3 3 3 5 6 6 4 3 5 6 7 7 8 8 6 6 6 6 6 5 5 4 4 4 4 3 3 3 3 2 2 2 2 3 3 3 3 2 2 2 2 2 2 2 3 3 3
4 4 3 2 3 5 6 4 0 3 4 6 8 8 9 9 7 6 6 6 5 5 4 3 3 3 3 3 3 2 2 2 2 2 2 3 3 3 2 2 2 2 2 2 2 2 3 3 2
3 4 5 4 4 5 6 6 1 2 4 6 8 9 9 8 7 7 6 5 4 4 4 3 3 2 2 2 2 2 1 1 2 2 2 2 2 2 2 2 1 1 2 2 2 2 2 2 2
Wind_Direction
316 298 256 222 213 221 228 215 217 203 206 220 240 241 237 237 262 56 63 59 59 126 134 135 101 99 125 123 127 129 128 134 135 143 144 144 141 138 135 130 129 126 121 117 113 110 108 106 100
314 276 221 218 229 223 219 213 210 212 202 211 210 223 222 217 359 48 44 21 60 135 141 138 107 98 108 121 121 128 132 137 138 137 144 148 146 142 138 135 131 128 124 119 113 109 108 108 104
295 264 223 211 228 234 219 198 211 211 208 217 206 225 252 246 92 30 17 344 168 141 145 126 109 106 112 121 126 121 129 137 143 143 140 149 151 146 142 138 134 130 125 121 116 114 114 112 108
233 196 213 227 226 234 243 201 185 196 196 218 224 189 173 63 1 17 25 358 138 136 142 128 122 124 119 117 130 122 118 132 141 149 150 146 149 152 146 143 138 133 130 127 122 120 122 119 117
228 218 211 223 231 228 235 252 229 217 207 208 224 226 186 117 40 22 10 64 118 124 130 138 147 150 130 126 136 130 124 126 136 145 154 152 145 152 152 146 142 141 138 136 132 132 131 128 125
191 214 226 227 223 222 219 231 232 235 229 233 242 239 222 108 41 358 343 335 123 118 133 134 130 165 148 126 146 140 135 135 136 146 152 155 154 148 159 154 149 146 146 143 140 141 139 135 129
211 205 235 237 230 225 218 223 234 238 237 243 275 249 223 134 356 330 319 301 3 67 123 136 152 162 161 145 157 158 149 145 144 143 149 155 159 156 157 162 156 152 153 152 148 146 145 141 136
283 210 222 229 231 229 216 214 246 259 263 300 271 253 252 327 330 319 316 315 350 20 33 20 231 178 179 177 170 170 157 155 149 138 139 148 156 162 156 163 162 160 159 158 155 153 151 144 140
229 214 226 229 231 218 185 209 234 290 260 253 266 290 311 309 297 297 316 348 353 349 349 353 318 231 208 197 180 184 174 164 163 152 134 160 174 172 170 159 160 169 167 163 161 157 150 149 146
210 214 231 253 268 237 220 271 284 246 250 256 255 293 317 302 278 273 298 327 336 336 332 331 318 313 257 218 204 198 194 188 194 182 174 188 186 172 177 138 157 171 169 169 165 157 160 184 168
161 219 217 261 290 270 253 273 277 256 260 263 279 301 319 310 284 278 277 298 304 311 325 320 318 326 311 228 220 213 201 201 207 196 190 198 187 168 171 164 166 174 179 179 169 173 184 197 183
164 205 252 284 308 285 270 265 271 269 272 298 301 303 303 291 292 286 284 295 304 309 308 312 320 308 308 286 208 209 208 210 218 216 205 203 204 192 185 197 199 196 191 192 196 198 194 202 195
207 226 271 282 288 288 280 270 270 272 280 287 288 284 287 290 288 296 286 290 299 303 301 301 304 299 284 279 266 226 215 217 222 225 216 209 216 207 196 200 208 213 200 193 201 206 202 206 205
128 220 281 287 276 272 272 279 264 268 276 264 268 277 282 291 292 294 294 295 305 303 299 299 293 283 277 257 270 252 228 227 227 223 226 220 220 224 212 207 212 212 209 198 201 208 209 212 212
183 255 274 286 271 261 270 276 253 266 255 258 269 275 285 291 294 293 295 300 299 300 297 295 289 281 273 264 259 260 238 226 235 237 229 222 224 228 228 214 218 216 210 203 199 199 209 214 213
206 227 237 266 284 261 251 266 279 273 264 269 276 282 282 285 288 288 294 300 300 300 299 295 289 281 268 257 258 267 256 232 233 242 234 227 227 229 235 217 217 215 211 203 202 198 205 209 213
202 225 239 260 320 276 249 265 284 283 272 277 277 278 277 283 288 288 293 301 300 297 298 297 294 283 275 266 253 266 269 246 238 242 237 229 229 229 235 231 218 212 213 202 201 204 207 208 212
208 219 238 256 317 293 265 269 282 284 274 273 275 274 274 280 284 291 295 300 299 299 295 295 300 285 278 272 263 270 274 257 248 249 244 233 228 231 233 234 220 209 217 211 204 207 208 210 205
246 240 256 271 298 293 276 279 284 283 276 278 277 275 275 278 287 296 298 303 305 299 295 296 296 298 284 275 270 271 275 264 256 256 259 240 229 231 233 235 223 213 214 217 213 210 199 193 188
234 241 257 269 277 286 288 283 280 273 264 268 271 275 282 289 295 295 297 301 301 298 295 290 285 285 274 270 272 266 275 276 266 266 264 252 235 234 234 230 222 219 216 214 208 199 200 184 191
237 243 261 278 300 277 285 274 251 260 259 263 268 277 281 285 290 291 289 289 291 292 291 285 282 282 280 272 267 259 280 273 267 267 265 262 243 233 237 238 224 219 215 216 211 199 200 193 198
243 245 258 264 275 281 290 281 254 262 275 276 275 281 283 283 283 286 288 286 284 289 288 284 279 281 285 278 257 243 257 263 266 263 264 274 251 232 228 240 233 225 222 220 216 211 212 200 197
241 264 253 250 250 269 244 254 264 259 267 275 282 291 291 292 287 285 286 285 284 292 286 279 276 274 277 279 267 252 257 266 264 265 260 278 260 234 229 236 237 231 227 223 215 212 208 208 210
235 233 216 214 229 250 238 244 264 237 273 287 293 302 301 301 297 294 294 291 287 293 289 280 274 272 272 271 267 258 261 263 249 255 258 269 277 252 239 235 231 232 230 225 217 215 210 211 214
218 230 236 224 226 242 210 247 257 265 286 294 297 301 307 306 301 301 298 294 292 289 291 280 276 274 271 266 268 264 268 257 241 246 249 255 270 265 255 253 235 229 230 230 217 211 210 210 211
201 237 244 265 272 284 238 247 258 274 287 293 298 300 308 308 312 307 301 294 289 283 285 280 276 273 269 265 269 270 272 259 249 256 264 260 264 267 261 245 244 243 232 229 221 211 207 207 212
188 193 281 263 273 270 255 262 267 254 289 305 309 311 314 310 305 306 302 293 284 277 276 267 262 266 263 263 268 268 266 262 268 269 265 264 268 269 259 242 240 241 240 237 226 212 204 201 208
277 161 185 211 256 269 267 260 263 267 302 314 315 317 319 315 306 303 301 293 282 273 271 263 254 260 262 263 266 267 261 262 263 261 258 264 268 266 248 243 241 242 243 235 235 208 199 198 199
170 179 198 208 263 270 283 276 48 270 303 307 309 315 318 318 317 306 300 294 289 284 282 268 255 262 264 263 263 265 273 264 269 265 266 270 267 251 244 245 247 240 240 237 224 203 190 194 196
222 213 201 223 226 239 269 277 87 286 304 304 311 315 318 321 319 315 307 303 298 293 288 271 263 267 268 265 262 266 271 257 264 279 281 285 283 264 250 243 246 237 221 225 218 195 184 184 193